Probability
0 0 0 0 0 0 0 0 0 0 0 0 0 0 0 0 0 0 0 0 0 0 0 0 0 0 0 0 0 0 0 0 0 0 0 0 0 0 0 0 0 0 0 0
0 0 0 0 0 0 0 0 0 0 0 0 0 0 0 0 0 0 0 0 0 0 0 0 0 0 0 0 0 0 0 0 0 0 0 0 0 0 0 0 0 0 0 0
0 0 0 0 0 0 0 0 0 0 0 0 0 0 0 0 0 0 0 0 0 0 0 0 0 0 0 0 0 0 0 0 0 0 0 0 0 0 0 0 0 0 0 0
0 0 0 0 0 0 0 0 0 0 0 0 0 0 0 0 0 0 0 0 0 0 0 0 0 0 0 0 0 0 0 0 0 0 0 0 0 0 0 0 0 0 0 0
0 0 0 0 0 0 0 0 0 0 0 0 0 0 0 0 0 0 0 0 0 0 0 0 0 0 0 0 0 0 0 0 0 0 0 0 0 0 0 0 0 0 0 0
0 0 0 0 0 0 0 0 0 0 0 0 0 0 0 0 0 0 0 0 0 0 0 0 0 0 0 0 0 0 0 0 0 0 0 0 0 0 0 0 0 0 0 0
0 0 0 0 0 0 0 0 0 0 0 0 0 0 0 0 0 0 0 0 0 0 0 0 0 0 0 0 0 0 0 0 0 0 0 0 0 0 0 0 0 0 0 0
0 0 0 0 0 0 0 0 0 0 0 0 0 0 0 0 0 0 0 0 0 0 0 0 0 0 0 0 0 0 0 0 0 0 0 0 0 0 0 0 0 0 0 0
0 0 0 0 0 0 0 0 0 0 0 0 0 0 0 0 0 0 0 0 0 0 0 0 0 0 0 0 0 0 0 0 0 0 0 0 0 0 0 0 0 0 0 0
0 0 0 0 0 0 0 0 0 0 0 0 0 0 0 0 0 0 0 0 0 0 0 0 0 0 0 0 0 0 0 0 0 0 0 0 0 0 0 0 0 0 0 0
0 0 0 0 0 0 0 0 0 0 0 0 0 0 0 0 0 0 0 0 0 0 0 0 0 0 0 0 0 0 0 0 0 0 0 0 0 0 0 0 0 0 0 0
0 0 0 0 0 0 0 0 0 0 0 0 0 0 0 0 0 0 0 0 0 0 0 0 0 0 0 0 0 0 0 0 0 0 0 0 0 0 0 0 0 0 0 0
0 0 0 0 0 0 0 0 0 0 0 0 0 0 0 0 0 0 0 0 0 0 0 0 0 0 0 0 0 0 0 0 0 0 0 0 0 0 0 0 0 0 0 0
0 0 0 0 0 0 0 0 0 0 0 0 0 0 0 0 0 0 0 0 0 0 0 0 0 0 0 0 0 0 0 0 0 0 0 0 0 0 0 0 0 0 0 0
0 0 0 0 0 0 0 0 0 0 0 0 0 0 0 0 0 0 0 0 0 0 0 0 0 0 0 0 0 0 0 0 0 0 0 0 0 0 0 0 0 0 0 0
0 0 0 0 0 0 0 0 0 0 0 0 0 0 0 0 0 0 0 0 0 0 0 0 0 0 0 0 0 0 0 0 0 0 0 0 0 0 0 0 0 0 0 0
0 0 0 0 0 0 0 0 0 0 0 0 0 0 0 0 0 0 0 0 0 0 0 0 0 0 0 0 0 0 0 0 0 0 0 0 0 0 0 0 0 0 0 0
0 0 0 0 0 0 0 0 0 0 0 0 0 0 0 0 0 0 0 0 0 0 0 0 0 0 0 0 0 0 0 0 0 0 0 0 0 0 0 0 0 0 0 0
0 0 0 0 0 0 0 0 0 0 0 0 0 0 0 0 0 0 0 0 0 0 0 0 0 0 0 0 0 0 0 0 0 0 0 0 0 0 0 0 0 0 0 0
0 0 0 0 0 0 0 0 0 0 0 0 0 0 0 0 0 0 0 0 0 0 0 0 0 0 0 0 0 0 0 0 0 0 0 0 0 0 0 0 0 0 0 0
0 0 0 0 0 0 0 0 0 0 0 0 0 0 0 0 0 0 0 0 0 0 0 0 0 0 0 0 0 0 0 0 0 0 0 0 0 0 0 0 0 0 0 0
0 0 0 0 0 0 0 0 0 0 0 0 0 0 0 0 0 0 0 0 0 0 0 0 0 0 0 0 0 0 0 0 0 0 0 0 0 0 0 0 0 0 0 0
0 0 0 0 0 0 0 0 0 0 0 0 0 0 0 0 0 0 0 0 0 0 0 0 0 0 0 0 0 0 0 0 0 0 0 0 0 0 0 0 0 0 0 0
0 0 0 0 0 0 0 0 0 0 0 0 0 0 0 0 0 0 0 0 0 0 0 0 0 0 0 0 0 0 0 0 0 0 0 0 0 0 0 0 0 0 0 0
0 0 0 0 0 0 0 0 0 0 0 0 0 0 0 0 0 0 0 0 0 0 0 0 0 0 0 0 0 0 0 0 0 0 0 0 0 0 0 0 0 0 0 0
0 0 0 0 0 0 0 0 0 0 0 0 0 0 0 0 0 0 0 0 0 0 0 0 0 0 0 0 0 0 0 0 0 0 0 0 0 0 0 0 0 0 0 0
0 0 0 0 0 0 0 0 0 0 0 0 0 0 0 0 0 0 0 0 0 0 0 0 0 0 0 0 0 0 0 0 0 0 0 0 0 0 0 0 0 0 0 0
Height
5605 5612 5620 5626 5633 5639 5647 5654 5660 5664 5668 5672 5676 5680 5683 5686 5688 5690 5691 5692 5693 5693 5693 5693 5693 5692 5691 5690 5687 5685 5682 5678 5675 5670 5664 5658 5651 5643 5635 5626 5617 5608 5598 5589
5608 5615 5621 5627 5633 5640 5646 5652 5657 5661 5665 5667 5671 5676 5679 5681 5683 5684 5684 5685 5685 5686 5686 5686 5686 5685 5684 5682 5679 5676 5673 5669 5664 5659 5653 5646 5638 5630 5621 5612 5603 5593 5584 5575
5612 5617 5622 5629 5635 5641 5646 5650 5655 5659 5662 5663 5667 5670 5673 5676 5677 5678 5679 5679 5679 5679 5680 5680 5679 5677 5675 5673 5670 5667 5663 5659 5653 5648 5641 5633 5625 5616 5607 5599 5589 5580 5570 5560
5613 5619 5624 5630 5632 5637 5642 5646 5650 5653 5655 5658 5663 5665 5667 5670 5672 5673 5673 5673 5673 5673 5673 5672 5671 5669 5667 5664 5661 5657 5653 5649 5643 5636 5629 5621 5612 5603 5595 5586 5576 5566 5556 5544
5613 5617 5622 5626 5629 5633 5638 5642 5645 5648 5650 5654 5658 5660 5662 5664 5666 5666 5666 5667 5667 5667 5666 5664 5663 5661 5658 5655 5652 5648 5643 5638 5631 5624 5616 5608 5599 5590 5582 5573 5563 5552 5540 5527
5612 5615 5619 5624 5626 5630 5635 5638 5641 5644 5646 5650 5652 5654 5657 5657 5658 5659 5660 5660 5659 5659 5657 5656 5654 5651 5649 5646 5642 5638 5632 5626 5619 5611 5603 5595 5586 5578 5569 5559 5548 5537 5524 5508
5610 5613 5617 5621 5623 5627 5633 5636 5637 5639 5641 5644 5646 5649 5651 5650 5651 5652 5653 5652 5652 5651 5649 5647 5645 5643 5640 5636 5632 5627 5621 5614 5607 5599 5590 5582 5574 5565 5556 5546 5535 5522 5508 5492
5608 5612 5618 5618 5620 5624 5627 5629 5631 5633 5636 5638 5640 5642 5643 5645 5645 5645 5645 5644 5643 5642 5640 5638 5636 5634 5630 5626 5621 5616 5609 5602 5594 5586 5578 5570 5562 5552 5541 5529 5517 5503 5488 5474
5608 5613 5614 5615 5618 5620 5623 5625 5627 5630 5631 5633 5635 5636 5637 5638 5638 5638 5637 5636 5635 5634 5632 5630 5627 5624 5620 5615 5610 5603 5596 5589 5581 5574 5567 5558 5549 5538 5526 5512 5499 5484 5469 5453
5604 5607 5609 5611 5614 5616 5619 5621 5623 5625 5627 5628 5629 5630 5631 5631 5631 5630 5629 5628 5627 5626 5624 5621 5618 5614 5609 5603 5597 5591 5584 5577 5571 5563 5555 5545 5534 5522 5508 5494 5480 5465 5447 5431
5599 5602 5604 5607 5610 5612 5615 5617 5619 5620 5621 5622 5623 5624 5624 5624 5623 5622 5621 5620 5619 5617 5614 5611 5607 5602 5597 5591 5585 5579 5573 5566 5559 5551 5542 5532 5520 5506 5491 5476 5458 5442 5426 5408
5596 5599 5601 5604 5606 5609 5611 5613 5614 5615 5616 5617 5617 5617 5617 5616 5616 5614 5613 5611 5609 5607 5604 5600 5595 5591 5585 5579 5574 5568 5562 5554 5547 5538 5528 5517 5506 5493 5475 5459 5442 5423 5405 5388
5593 5595 5598 5601 5603 5605 5607 5609 5610 5610 5611 5611 5610 5610 5609 5608 5607 5606 5604 5601 5599 5596 5593 5589 5584 5579 5574 5568 5563 5556 5550 5542 5533 5524 5513 5501 5489 5476 5464 5448 5427 5408 5391 5375
5590 5593 5595 5597 5600 5602 5603 5604 5604 5605 5605 5604 5604 5603 5601 5600 5598 5596 5594 5592 5590 5586 5583 5578 5573 5568 5563 5558 5551 5545 5537 5529 5519 5509 5497 5484 5471 5456 5441 5427 5414 5399 5381 5364
5587 5590 5592 5594 5596 5597 5598 5598 5599 5598 5598 5597 5596 5595 5593 5592 5590 5588 5586 5584 5580 5576 5572 5568 5563 5558 5553 5546 5540 5532 5524 5515 5505 5493 5481 5467 5453 5438 5423 5408 5394 5380 5368 5355
5583 5586 5588 5590 5591 5592 5592 5592 5592 5591 5590 5589 5588 5586 5585 5583 5582 5580 5577 5574 5570 5566 5562 5557 5553 5547 5541 5534 5527 5519 5510 5500 5490 5478 5464 5450 5435 5421 5407 5393 5379 5365 5353 5342
5579 5581 5582 5584 5584 5585 5585 5585 5584 5583 5582 5581 5580 5578 5577 5575 5573 5570 5567 5564 5560 5556 5551 5547 5541 5535 5529 5522 5514 5505 5496 5485 5473 5460 5446 5432 5418 5404 5391 5378 5365 5354 5342 5329
5573 5574 5576 5576 5576 5576 5576 5576 5575 5575 5574 5573 5572 5570 5568 5566 5563 5560 5557 5553 5549 5545 5540 5535 5529 5523 5516 5509 5500 5491 5481 5469 5456 5443 5429 5416 5402 5388 5376 5364 5354 5343 5332 5322
5565 5567 5567 5567 5567 5567 5567 5567 5566 5565 5565 5564 5563 5561 5559 5556 5554 5550 5547 5543 5539 5534 5529 5524 5517 5511 5503 5496 5486 5476 5465 5452 5439 5426 5413 5399 5387 5374 5363 5354 5343 5333 5323 5315
5556 5557 5558 5558 5558 5558 5558 5558 5557 5556 5556 5555 5553 5552 5549 5547 5544 5540 5537 5533 5528 5523 5518 5512 5506 5498 5490 5481 5471 5460 5448 5435 5423 5410 5397 5384 5373 5362 5353 5343 5333 5324 5316 5309
5548 5548 5549 5549 5549 5550 5549 5549 5548 5548 5547 5546 5544 5542 5540 5537 5534 5530 5526 5522 5517 5512 5506 5500 5493 5485 5475 5465 5454 5443 5431 5418 5406 5393 5381 5370 5360 5351 5342 5333 5325 5318 5311 5306
5539 5540 5541 5541 5541 5541 5541 5540 5540 5539 5538 5537 5535 5532 5529 5526 5523 5519 5515 5511 5506 5500 5494 5487 5478 5469 5459 5448 5437 5426 5414 5401 5389 5376 5365 5356 5348 5340 5332 5325 5318 5312 5308 5304
5531 5532 5532 5533 5533 5532 5532 5532 5531 5530 5529 5527 5524 5522 5519 5516 5512 5509 5504 5499 5494 5487 5480 5472 5462 5452 5442 5431 5420 5409 5397 5384 5372 5361 5352 5345 5337 5329 5323 5318 5313 5308 5305 5302
5522 5523 5524 5524 5524 5524 5523 5523 5522 5520 5518 5516 5514 5512 5509 5505 5502 5497 5492 5487 5480 5473 5464 5455 5446 5436 5425 5415 5403 5392 5379 5367 5357 5348 5340 5332 5325 5320 5315 5311 5307 5305 5302 5300
5514 5515 5515 5515 5515 5514 5514 5513 5512 5510 5509 5506 5504 5501 5498 5494 5490 5485 5479 5473 5466 5457 5448 5439 5429 5419 5409 5398 5386 5374 5362 5352 5344 5335 5328 5321 5315 5311 5307 5304 5302 5301 5299 5299
5506 5507 5507 5507 5506 5506 5505 5504 5502 5500 5498 5496 5494 5490 5487 5483 5478 5472 5465 5458 5450 5442 5433 5423 5413 5402 5392 5380 5368 5357 5348 5339 5330 5322 5315 5309 5305 5302 5300 5298 5297 5297 5297 5299
5499 5499 5499 5499 5498 5497 5496 5494 5493 5491 5488 5486 5483 5479 5474 5469 5464 5458 5451 5443 5435 5426 5416 5407 5396 5386 5374 5363 5353 5344 5335 5325 5317 5310 5304 5299 5296 5294 5293 5293 5293 5294 5296 5300
Wind_Speed
23 24 24 23 25 28 28 27 25 23 23 24 24 22 21 22 22 23 25 26 28 28 28 28 29 30 31 32 35 36 36 37 39 42 46 50 55 59 63 66 66 64 63 63
19 19 20 21 23 23 23 23 23 22 21 24 26 25 24 24 25 26 27 28 28 28 28 28 30 32 33 35 36 37 37 39 41 46 50 55 59 63 66 66 64 61 62 66
17 17 17 19 20 21 22 22 23 23 23 25 25 26 26 25 26 26 26 27 27 27 28 30 32 34 35 36 37 37 38 41 45 50 54 59 63 66 66 64 61 62 66 71
17 17 18 20 21 23 26 27 26 27 28 27 25 26 28 27 26 25 23 24 26 28 30 32 34 35 36 37 38 39 41 45 50 54 59 63 66 67 63 61 62 66 71 77
20 20 20 19 21 23 25 27 29 30 31 30 27 28 28 26 24 23 24 25 28 30 32 33 35 37 37 38 39 41 45 50 54 58 62 66 66 63 61 62 66 71 77 83
21 20 20 19 19 20 22 25 28 30 32 30 29 29 27 27 26 26 27 28 30 32 33 35 36 36 36 38 41 45 50 54 58 62 65 65 62 61 62 66 71 77 82 88
20 19 18 17 18 19 20 22 25 27 28 27 27 28 27 29 29 28 29 31 33 35 36 36 36 36 37 40 45 50 54 58 61 64 64 61 60 62 66 71 76 81 86 92
18 16 15 17 18 17 17 20 24 26 26 27 27 28 28 28 29 29 29 30 32 33 33 33 34 36 40 44 49 53 57 60 62 61 59 59 61 66 71 77 81 86 91 96
17 15 16 18 18 17 17 19 21 23 25 27 28 28 29 29 29 29 29 30 30 30 31 34 37 41 45 49 53 56 58 59 57 56 58 60 65 70 76 81 86 91 96 100
19 18 20 20 19 17 16 17 18 20 22 25 27 28 28 29 28 28 28 29 30 32 34 38 42 45 49 52 55 56 55 53 54 55 58 63 69 75 80 85 90 95 100 102
19 19 21 21 20 19 17 15 15 15 16 17 19 21 23 24 27 28 30 32 33 36 38 41 44 47 50 53 53 51 50 51 53 57 62 67 73 79 84 89 95 100 102 101
19 19 19 18 17 16 15 14 14 14 16 17 19 20 22 25 27 29 30 32 35 37 40 43 46 50 51 50 48 48 50 52 56 61 66 72 78 82 88 93 98 101 100 93
16 16 15 13 12 12 13 13 14 16 18 20 22 24 26 28 29 30 32 33 36 39 42 46 49 48 46 46 47 49 52 56 61 66 72 77 82 87 90 94 97 98 91 81
16 15 14 13 12 13 14 16 18 20 22 25 27 29 30 31 32 33 34 36 39 42 45 45 44 44 45 47 49 52 56 60 65 71 77 82 87 91 95 96 96 89 78 72
17 16 15 15 16 18 20 21 23 25 27 30 32 33 33 33 33 34 36 39 41 42 42 42 43 44 46 48 52 56 60 65 70 76 82 87 91 94 95 95 91 80 70 69
20 20 20 21 22 24 26 27 28 30 33 34 34 33 32 32 34 36 38 39 39 40 41 42 43 45 47 51 55 60 64 70 75 81 85 89 92 94 94 90 80 70 68 67
23 25 26 27 29 30 31 32 33 35 35 33 32 32 33 34 35 36 38 39 40 40 41 42 44 47 51 55 59 64 70 75 80 84 88 91 93 92 89 79 69 67 66 62
28 29 31 32 33 33 33 34 35 34 34 33 33 34 33 33 35 37 39 39 39 40 41 44 47 51 55 59 65 70 75 79 83 86 89 91 91 87 77 68 65 64 59 53
31 31 32 33 33 34 34 34 34 34 33 32 31 31 32 35 37 38 39 39 40 41 44 48 52 56 60 65 70 75 79 82 85 88 90 90 85 76 67 64 63 58 52 44
29 29 30 31 31 31 31 31 30 30 30 30 31 33 36 37 39 39 39 40 42 45 48 52 56 60 66 70 75 79 82 84 87 89 89 84 74 66 63 61 55 49 43 33
27 28 28 28 27 28 28 28 29 30 31 33 35 36 37 38 39 40 41 42 45 49 52 56 61 66 70 74 78 81 84 86 89 88 82 72 65 62 59 53 46 40 32 24
23 24 24 25 26 27 28 30 31 33 34 36 36 38 38 39 40 41 43 46 49 52 56 61 66 70 74 77 80 83 86 89 87 80 70 64 61 58 50 44 38 31 24 19
25 26 27 28 28 30 31 32 34 35 35 36 37 38 38 39 41 43 46 49 52 57 62 67 70 74 77 79 82 85 88 87 79 69 63 61 57 49 42 37 30 23 17 14
28 29 29 30 31 32 33 34 34 35 36 36 37 38 39 41 43 46 50 54 59 64 67 70 73 76 78 81 85 89 86 77 68 64 61 56 48 42 36 29 22 16 12 7
29 30 31 31 31 31 31 32 33 34 35 36 38 39 42 44 48 52 56 61 65 68 70 73 75 77 81 86 89 84 74 67 64 62 56 47 42 36 29 23 16 10 5 3
25 25 25 26 27 28 30 32 33 35 37 38 40 43 47 50 54 58 61 65 67 69 72 74 76 80 85 87 81 71 66 65 61 55 48 42 36 29 23 17 11 5 3 13
22 23 25 26 28 30 33 35 37 38 40 43 46 50 53 56 60 63 65 67 69 70 73 75 80 85 85 77 69 65 64 60 55 49 42 35 28 22 17 11 4 5 14 22
Wind_Direction
191 194 197 202 199 193 192 195 204 217 229 237 244 250 257 262 266 268 268 267 266 266 266 268 271 274 277 281 285 288 291 294 296 300 304 307 310 312 314 314 314 314 314 315
179 184 191 195 194 191 196 206 214 225 237 245 249 252 254 260 267 269 269 268 268 268 269 271 274 277 280 283 286 289 292 295 298 302 306 309 311 313 313 313 313 314 315 317
190 197 201 207 210 211 215 220 223 228 239 247 249 252 254 259 265 268 268 267 266 267 269 271 274 278 282 285 288 291 293 297 301 304 307 309 311 312 312 312 313 314 316 318
208 211 217 220 221 223 223 225 227 231 239 247 252 257 262 266 268 269 266 264 265 267 270 273 278 281 284 286 289 292 295 299 303 306 308 309 310 310 311 311 312 314 316 317
220 226 228 230 229 228 227 228 230 235 242 249 260 262 264 266 265 263 264 267 270 272 275 279 282 284 286 288 291 294 298 301 304 306 307 309 309 310 310 311 313 315 317 317
222 225 229 231 234 232 230 233 234 240 247 254 257 258 259 260 259 261 266 271 274 278 281 283 286 287 289 291 294 297 299 302 304 306 308 309 309 309 310 312 315 317 318 318
224 225 227 227 232 232 230 231 236 242 247 249 250 253 254 257 262 266 271 275 278 280 282 283 285 287 290 292 295 298 301 303 306 307 308 308 308 309 311 314 316 317 318 319
232 228 221 220 224 226 227 226 230 236 242 245 247 251 255 260 265 271 275 279 283 284 284 285 286 289 292 294 297 300 303 305 307 308 307 307 309 312 314 315 316 318 319 320
231 227 230 231 230 232 232 232 236 241 246 250 253 256 261 266 270 275 279 281 284 285 287 288 289 291 294 297 300 303 306 307 307 308 308 310 312 313 315 317 318 319 320 321
231 233 234 231 233 237 237 238 242 247 252 255 259 263 268 272 276 278 280 282 284 285 287 289 291 294 297 301 304 306 306 307 308 309 310 312 314 316 318 319 320 320 321 322
236 232 229 229 233 235 237 238 241 248 255 261 265 269 273 277 279 281 283 284 284 285 288 292 296 300 303 304 305 306 306 308 309 310 312 314 317 320 321 321 321 322 323 323
231 227 225 226 229 228 231 239 248 256 265 272 277 281 284 284 285 285 285 286 288 290 294 298 301 303 304 305 304 305 307 309 310 312 314 317 319 320 321 321 322 323 324 324
218 216 213 214 218 225 236 248 260 270 279 286 289 291 291 291 291 290 291 292 295 297 299 301 303 304 303 304 305 306 308 309 311 313 316 318 319 320 320 321 322 324 325 324
211 214 219 224 233 245 256 266 275 282 287 291 293 293 294 294 294 294 295 297 299 300 302 303 304 303 303 305 306 307 308 310 313 316 318 319 319 320 321 322 324 325 324 324
222 226 234 243 254 263 270 276 280 285 290 294 295 294 293 292 293 294 297 299 301 303 304 304 303 303 305 306 307 308 310 314 316 318 318 319 320 321 322 323 325 325 325 326
238 242 248 256 264 271 276 278 281 286 292 296 295 293 291 292 294 297 300 302 303 303 303 303 303 304 305 307 309 312 315 318 318 318 319 319 320 321 323 325 325 325 326 327
256 259 263 268 273 276 278 280 283 288 292 293 292 291 292 294 297 299 300 301 301 301 301 302 303 305 307 310 313 316 318 318 319 319 320 320 321 322 324 325 325 327 328 329
266 269 272 274 276 278 280 282 285 287 288 288 288 289 291 294 297 298 299 300 300 300 301 303 305 308 311 314 316 317 318 318 319 320 320 320 322 324 324 325 326 328 329 330
266 268 271 273 276 277 279 281 282 282 282 283 285 289 292 295 296 297 298 299 299 301 303 306 309 312 314 316 316 317 318 319 319 319 320 321 323 324 324 325 327 328 329 331
266 268 271 273 274 275 275 277 278 280 282 286 289 292 293 295 296 297 297 298 300 303 307 310 312 314 315 316 317 318 319 319 319 320 321 323 323 323 324 326 327 328 331 334
265 269 272 272 270 271 273 276 280 283 286 288 290 291 292 293 294 296 298 300 303 306 309 311 313 314 315 316 317 318 319 319 319 321 322 322 323 324 325 326 328 329 333 336
265 268 269 270 271 273 276 279 282 284 286 288 288 290 291 294 296 298 300 302 305 307 309 311 313 314 315 317 318 318 318 319 320 322 322 322 323 324 325 327 328 330 333 337
264 266 267 269 271 274 277 279 281 283 285 287 289 291 294 297 300 301 303 304 306 308 310 312 313 314 316 317 317 317 318 320 321 321 321 322 323 324 325 326 327 330 332 337
262 264 266 269 272 275 278 280 282 284 287 290 293 296 298 300 301 303 304 306 307 309 310 312 313 315 316 317 317 318 320 320 321 321 321 321 322 323 324 325 325 327 330 341
263 266 269 271 274 276 279 282 286 290 293 296 298 300 300 301 302 304 305 306 308 309 311 312 314 315 316 317 318 319 320 320 320 321 321 321 321 321 322 322 321 320 324 132
267 269 271 274 278 282 286 289 293 295 297 299 299 299 300 301 303 304 305 306 308 310 311 313 314 314 316 318 319 319 320 320 321 322 321 320 319 318 318 316 311 299 164 148
272 276 279 282 285 287 290 292 295 296 297 297 297 299 300 302 303 304 306 307 309 311 312 312 313 315 317 318 318 319 321 321 322 322 321 319 317 315 313 305 272 177 153 149